www.pogodaiklimat.ru

Погода и климат >> Архив погоды >> Индия >> Андхра-Прадеш >> Мачилипатнам


ПОГОДА в Мачилипатнаме

  • Прогноз погоды в Мачилипатнаме
  • Монитор погоды в Мачилипатнаме

АРХИВ ПОГОДЫ в Мачилипатнаме

Время (UTC), дата Ветер
(напр.,м/с)
 
Видим.   Явления Облачность Т
(С)
Тd
(С)
f
(%)
Тe
(С)
Тes
(С)
Комфортность P
(гПа)
Po
(гПа)
Тmin
(С)
Tmax
(С)
R
(мм)
R24
(мм)
S
(см)
03 11.09 Ю 3 10 км 9/6 600 м
[Sc Ac trans]
+30.0 +26.7 83 +47 +48 опасность
перегрева
1006.4 1006.1 +28.1 +35.9
06 11.09 З 3 10 км 6/1 600 м
[Sc Ac trans Ci fib]
+34.0 +24.9 59 +47 +58 опасность
перегрева
1006.2 1005.9
09 11.09 ЮЗ 1 10 км 8/4 600 м
[Sc Ac trans]
+33.8 +25.6 62 +48 +54 опасность
перегрева
1004.6 1004.3
12 11.09 штиль 0 10 км 8/4 600 м
[Sc As trans]
+33.2 +24.7 61 +46 +47 опасность
перегрева
1003.5 1003.2 +35.0
15 11.09 Ю 3 4000 м 6/4 600 м
[Sc Ac trans]
+29.6 +26.6 84 +46 +46 опасность
перегрева
1005.9 1005.6
18 11.09 Ю 2 4000 м 4/4 600 м
[Sc]
+28.8 +26.5 87 +44 +44 опасность
перегрева
1007.1 1006.8
21 11.09 Ю 2 4000 м 5/3 600 м
[Sc Ac trans]
+28.2 +24.7 81 +40 +40 очень
душно
1005.3 1005.0
00 12.09 Ю 5 4000 м гроза, ливневой дождь {морось} 10/6 600 м
[Cb cap As op]
+27.4 +25.9 92 +41 +41 опасность
перегрева
1006.0 1005.7 1
03 12.09 ЮЗ 1 4000 м гроза, ливневой дождь 10/5 600 м
[Cb calv As op]
+25.8 +24.9 95 +37 +38 очень
душно
1009.2 1008.9 +24.6 +35.0 13
06 12.09 ЮЗ 1 10 км {морось} 8/3 600 м
[Sc As trans]
+28.8 +26.6 88 +45 +54 опасность
перегрева
1007.7 1007.4 5
09 12.09 СЗ 1 10 км 6/3 600 м
[Sc Ac As]
+32.4 +26.2 70 +49 +56 опасность
перегрева
1005.2 1004.9 5
12 12.09 штиль 0 10 км 9/5 600 м
[Sc Ac As]
+31.4 +25.1 69 +45 +45 опасность
перегрева
1004.6 1004.3 +32.8 5
15 12.09 Ю 1 4000 м 10/5 600 м
[Sc Ac As]
+29.6 +26.6 84 +46 +46 опасность
перегрева
1007.1 1006.8 5
18 12.09 Ю 2 4000 м 10/5 600 м
[Sc Ac As]
+28.4 +26.4 89 +43 +43 опасность
перегрева
1008.6 1008.3 5
21 12.09 Ю 2 4000 м 8/4 600 м
[Sc Ac As]
+28.0 +26.0 89 +42 +42 опасность
перегрева
1006.6 1006.3 5
00 13.09 Ю 2 4000 м 5/3 600 м
[Sc Ac trans]
+27.8 +25.8 89 +41 +41 опасность
перегрева
1007.0 1006.7 5
03 13.09 З 1 10 км 6/3 600 м
[Sc Ac trans]
+29.8 +25.8 79 +44 +49 опасность
перегрева
1009.3 1009.0 +27.5 +32.8 5
06 13.09 З 1 10 км 3/1 600 м
[Sc Ac trans]
+33.4 +26.1 66 +50 +70 опасность
перегрева
1008.6 1008.3
09 13.09 нст 1 10 км 5/5 600 м
[Cu Sc]
+35.2 +26.0 59 +51 +59 опасность
перегрева
1005.6 1005.3
12 13.09 штиль 0 4000 м слаб. морось {дождь} 9/5 600 м
[Cb calv As trans]
+28.4 +26.1 87 +43 +43 опасность
перегрева
1005.3 1005.0 +35.5 1
15 13.09 Ю 1 4000 м {гроза, дождь} 8/4 600 м
[Sc Ac trans]
+27.8 +25.8 89 +41 +41 опасность
перегрева
1007.4 1007.1 2
18 13.09 Ю 1 4000 м {гроза, дождь} 6/4 600 м
[Sc Ac trans]
+28.0 +26.3 91 +43 +43 опасность
перегрева
1008.0 1007.7 2
21 13.09 Ю 1 4000 м 6/4 600 м
[Sc Ac trans]
+27.8 +26.1 90 +42 +42 опасность
перегрева
1006.3 1006.0 2
00 14.09 ЮЗ 2 4000 м гроза, ливневой дождь 10/6 600 м
[Cb calv As op]
+25.2 +23.7 91 +34 +34 очень
душно
1007.3 1007.0 6
03 14.09 ЮЗ 1 10 км в посл. час морось {гроза, дождь} 8/3 600 м
[Sc Ac As]
+26.2 +25.0 93 +37 +41 очень
душно
1008.6 1008.3 +24.7 +35.5 15
06 14.09 З 2 10 км {гроза, дождь} 4/3 600 м
[Sc Ac trans]
+31.6 +25.7 71 +47 +59 опасность
перегрева
1007.6 1007.3
09 14.09 З 1 10 км 5/4 600 м
[Cu Sc Ac trans]
+33.6 +26.3 66 +50 +59 опасность
перегрева
1005.4 1005.1
12 14.09 Ю 2 10 км 3/3 600 м
[Sc]
+31.2 +27.6 81 +50 +51 опасность
перегрева
1004.9 1004.6 +34.2
15 14.09 З 2 4000 м 4/4 600 м
[Sc]
+27.4 +24.5 84 +39 +39 очень
душно
1007.1 1006.8
18 14.09 Ю 1 4000 м 3/3 600 м
[Sc]
+27.4 +24.8 86 +39 +39 очень
душно
1007.8 1007.5
21 14.09 штиль 0 4000 м 3/3 600 м
[Sc]
+27.2 +24.9 87 +39 +39 очень
душно
1006.8 1006.5
00 15.09 Ю 1 4000 м 4/4 600 м
[Sc]
+27.8 +24.6 83 +39 +39 очень
душно
1006.7 1006.4
03 15.09 З 3 10 км 5/4 600 м
[Cu Sc Ac trans]
+27.8 +24.6 83 +39 +43 очень
душно
1007.5 1007.2 +27.1 +34.2
06 15.09 З 3 10 км 6/6 600 м
[Sc]
+31.6 +25.1 69 +46 +52 опасность
перегрева
1007.2 1006.9
09 15.09 ЮЗ 1 10 км 6/4 600 м
[Sc Ac trans]
+33.2 +25.3 63 +47 +55 опасность
перегрева
1004.9 1004.6
12 15.09 СЗ 1 10 км 6/4 600 м
[Sc Ci fib]
+32.4 +25.3 66 +46 +47 опасность
перегрева
1003.8 1003.5 +33.7
15 15.09 штиль 0 4000 м 1/1 600 м
[Sc]
+30.2 +25.9 78 +45 +45 опасность
перегрева
1005.9 1005.6
18 15.09 Ю 2 4000 м 6/3 600 м
[Sc Ac trans]
+29.4 +26.8 86 +46 +46 опасность
перегрева
1006.3 1006.0
21 15.09 Ю 2 4000 м 4/1 600 м
[Sc Ac trans]
+28.4 +25.8 86 +42 +42 опасность
перегрева
1005.1 1004.8
00 16.09 Ю 3 4000 м 8/4 600 м
[Sc Ac As]
+28.4 +26.1 87 +43 +43 опасность
перегрева
1005.0 1004.7
03 16.09 Ю 1 4000 м мгла 8/4 600 м
[Sc As trans]
+28.6 +27.4 93 +46 +49 опасность
перегрева
1006.2 1005.9 +27.9 +33.7 9
06 16.09 ЮЗ 1 10 км {дождь} 8/4 600 м
[Sc As trans]
+30.8 +26.3 77 +47 +55 опасность
перегрева
1005.4 1005.1
09 16.09 З 1 10 км 4/1 600 м
[Sc Ac trans Ci fib]
+33.2 +26.5 68 +50 +62 опасность
перегрева
1002.2 1001.9
12 16.09 СЗ 2 10 км 6/3 600 м
[Sc Ac As]
+31.0 +25.9 74 +46 +46 опасность
перегрева
1001.8 1001.5 +34.3
15 16.09 З 2 4000 м 5/4 600 м
[Cb calv Ac trans]
+28.0 +24.5 81 +39 +39 очень
душно
1004.1 1003.8
18 16.09 З 1 4000 м 8/4 600 м
[Cb calv Ac trans]
+27.4 +24.5 84 +39 +39 очень
душно
1004.5 1004.2
21 16.09 З 1 4000 м 8/5 600 м
[Sc Ac trans]
+27.2 +25.4 90 +40 +40 очень
душно
1002.7 1002.4
00 17.09 З 1 4000 м 9/6 600 м
[Sc Ac trans]
+27.0 +25.2 90 +39 +39 очень
душно
1003.4 1003.1
03 17.09 штиль 0 10 км 3/0
[Ac As]
+28.2 +25.9 87 +42 +50 опасность
перегрева
1004.8 1004.5 +26.7 +34.3
06 17.09 штиль 0 10 км 8/3 600 м
[Sc As trans]
+28.2 +25.9 87 +42 +63 опасность
перегрева
1004.8 1004.5 +26.7 +34.3
09 17.09 ЮЗ 2 10 км {морось} 10/6 600 м
[Sc As trans]
+30.4 +26.5 80 +47 +49 опасность
перегрева
1002.6 1002.3
12 17.09 СЗ 2 4000 м {морось} 9/4 600 м
[Sc Ac As]
+27.2 +24.3 84 +38 +38 очень
душно
1003.1 1002.8 +31.0
15 17.09 СЗ 1 4000 м 8/4 600 м
[Sc As trans]
+26.0 +23.9 88 +36 +36 очень
душно
1004.1 1003.8
18 17.09 ЮЗ 1 4000 м 8/4 600 м
[Sc As trans]
+26.0 +24.5 91 +36 +36 очень
душно
1004.5 1004.2
21 17.09 Ю 1 4000 м 8/4 600 м
[Sc As trans]
+26.0 +24.8 93 +37 +37 очень
душно
1003.3 1003.0
00 18.09 штиль 0 4000 м 8/4 600 м
[Sc As trans]
+26.4 +25.2 93 +38 +38 очень
душно
1003.4 1003.1

 

Местоположение метеостанции Мачилипатнам (Андхра-Прадеш, Индия): широта 16.20 долгота 81.15 высота над уровнем моря 3 м.

В архиве по умолчанию представлена погода в Мачилипатнаме за последнюю неделю. Архивные данные за месяц целиком и за предыдущие месяцы, начиная с января 2011 года, Вы можете получить, выбрав интересующий диапазон дат из раскрывающегося списка и нажав кнопку "Ввод!".


*Определитесь, кто Вы:
робот инопланетянин человек

Внимание! Время в таблицах - всемирное. Для получения местного времени необходимо прибавить поправку, которая равна 5.5 ч.

Смотрите также архив погоды в соседних городах и на ближайших метеорологических станциях:

Погода в Ганнавараме (Андхра-Прадеш, Индия) (52 км)
Погода в Нарсапере (Андхра-Прадеш, Индия) (64 км)
Погода в Бапатле (Андхра-Прадеш, Индия) (80 км)
Погода в Нандигаме (Андхра-Прадеш, Индия) (113 км)
Погода в Онголе (Андхра-Прадеш, Индия) (140 км)
Погода в Какинаде (Андхра-Прадеш, Индия) (142 км)
Погода в Кхаммаме (Телингана, Индия) (158 км)
Погода в Бхадрачаламе (Телингана, Индия) (166 км)
Погода в Рентчайнтале (Андхра-Прадеш, Индия) (175 км)
Погода в Кавали (Андхра-Прадеш, Индия) (191 км)

Пояснения к столбцам:

Ветер - указаны скорость ветра в м/с - средняя за 10 мин, порывы в срок и между сроками (в фигурных скобках) и направление, откуда дует ветер: С - северный, СВ - северо-восточный, В - восточный, ЮВ - юго-восточный, Ю - южный, ЮЗ - юго-западный, З - западный, СЗ - северо-западный.
Видимость - горизонтальная дальность видимости в метрах или километрах. При видимости от 1 до 10 км при отсутствии осадков обычно наблюдается дымка, при ухудшении видимости до 1 км и менее - туман. В сухую погоду видимость может ухудшаться дымом, пылью или мглою.
Явления - указаны атмосферные явления, наблюдавшиеся в срок или в последний час перед сроком; фигурными скобками обозначены явления, наблюдавшиеся между сроками (за 1-3 часа до срока); квадратными скобками обозначены град или гололедные отложения с указанием их диаметра в мм.
Облачность - указаны через наклонную черту общая и нижняя облачность в баллах и высота нижней границы облаков в метрах; квадратными скобками обозначены формы облаков: Ci - перистые, Cs - перисто-слоистые, Cc - перисто-кучевые, Ac - высококучевые, As - высокослоистые, Sc - слоисто-кучевые, Ns - слоисто-дождевые, Cu - кучевые, Cb - кучево-дождевые. Подробнее классификацию облаков см. в Атласе облаков (PDF).
T - Температура воздуха - температура, измеренная на высоте 2 м над землей.
Td - Температура точки росы - температура, при понижении до которой содержащийся в воздухе водяной пар достигнет насыщения.
f - Относительная влажность воздуха - влажноcть воздуха, измеренная на высоте 2 м над землей.
Te - Эффективная температура - температура, которую ощущает одетый по сезону человек в тени. Характеристика душности погоды. При расчете учитывается влияние влажности воздуха и скорости ветра на теплоощущения человека.
Tes - Эффективная температура на солнце - температура, которую ощущает человек, с поправкой на солнечный нагрев. Характеристика знойности погоды. Зависит от высоты солнца над горизонтом, облачности и скорости ветра. Ночью, в пасмурную погоду, а также при ветре 12 м/с и более поправка равна нулю.
P - Атмосферное давление - приведенное к уровню моря атмосферное давление.
Po - Атмосферное давление - измеренное на уровне метеостанции атмосферное давление.
Tmin - Минимальная температура - минимум температуры воздуха на высоте 2 м над землей.
Tmax - Максимальная температура - максимум температуры воздуха на высоте 2 м над землей.
R - Количество осадков - Количество выпавших осадков за период времени, мм. При наведении курсора мыши на число - период времени, за который выпало указанное количество осадков.
R24 - Количество осадков - Количество выпавших осадков за 24 часа, мм.
S - Снежный покров - Высота снежного покрова, см. При наведении курсора мыши на число - состояние снежного покрова и степень покрытия местности в баллах.